EcAMSat (43019 NORAD) Tracking and Keplerian Element Data

This shows tracking and keplerian element data for the satellite.

Feedback or suggestion? Click here.




ElementValue
Catalog43019
NameEcAMSat
Epoch Orbit14103
Epoch Day312.43110721
Epoch Year2018
RAAN12.9482
Inclination51.6414
Eccentricity0.0004975
Argument of Perigee358.1994
Mean Anonmoly1.898
Mean Motion15.58584267
Decay Rate5.487E-05
L11 43019U 98067NG 18312.43110721 .00005487 00000-0 76699-4 0 9996
L22 43019 51.6414 12.9482 0004975 358.1994 1.8980 15.58584267141036

Live tracking and technical data element details for EcAMSat (NORAD 43019). EcAMSat can be tracked NOW for your location showing map with azimuth and elevation plus other details from your city location.

Track the satellite on the map from your city or location and see movement details for azimuth, elevation, latitude, longitude, range, height, and movement on the map or in text.







IsCatalogInMostPopularTable: catalog: 43019, numindb: 177
Update: records affected: 1



GetName: 43019 EcAMSat

Hit Count: updated at: Wed, 14 Nov 2018 15:43:40 GMT